Regional Weather Roundup
Issued by NWS

Home | Current Version | Previous Version | Text Only | Print | Product List | Glossary Off
Versions: 1 2 3 4 5 6 7 8 9 10 11 12 13 14 15 16 17 18 19 20 21 22 23 24 25 26 27 28 29 30 31 32 33 34 35 36 37 38 39 40 41 42 43 44 45 46 47 48 49 50

000
ASUS43 KFSD 010910
RWRSD

WEATHER ROUNDUP FOR SOUTH DAKOTA
NATIONAL WEATHER SERVICE SIOUX FALLS SD
400 AM CDT SAT NOV 01 2014

NOTE: "FAIR" INDICATES FEW OR NO CLOUDS BELOW 12,000 FEET WITH NO
SIGNIFICANT WEATHER AND/OR OBSTRUCTIONS TO VISIBILITY.


SDZ001>005-009-010-012>017-011000-
NORTHWEST AND NORTH CENTRAL SOUTH DAKOTA

CITY           SKY/WX    TMP DP  RH WIND       PRES   REMARKS
BUFFALO          N/A     35  25  66 S10       29.76F WCI  27
FAITH            N/A     36  19  50 S25G32    29.86F
MOBRIDGE       CLEAR     39  20  46 S30G39    29.99F
$$

SDZ012>016-024>037-041>051-057-063-072>074-011000-
SOUTHWEST AND SOUTH CENTRAL SOUTH DAKOTA

CITY           SKY/WX    TMP DP  RH WIND       PRES   REMARKS
RAPID CTY ARPT CLEAR     39  28  64 S15       29.85F
PIERRE         CLEAR     34  15  46 SE14      30.06S WCI  25
CUSTER         PTCLDY    37  27  67 W6        29.92F
ELLSWORTH AFB  PTCLDY    41  29  62 S7        29.83S
PHILIP         CLEAR     37  18  46 SE9       29.96F
PINE RIDGE     CLEAR     37  21  52 S23G35    29.94S
SPEARFISH      FAIR      45  28  53 CALM      29.82F
WINNER         FAIR      36  13  38 S25G36    30.12F
$$

SDZ004>011-016>023-039-040-011000-
NORTHEAST SOUTH DAKOTA

CITY           SKY/WX    TMP DP  RH WIND       PRES   REMARKS
ABERDEEN       MOCLDY    33  17  51 S20G31    30.20F WCI  21
WATERTOWN      PTCLDY    27  17  66 S20G25    30.27F WCI  13
SISSETON         N/A     25  18  74 S12       30.29F WCI  14
$$

SDZ017-020-022-023-036>040-048>070-011000-
SOUTHEAST SOUTH DAKOTA

CITY           SKY/WX    TMP DP  RH WIND       PRES   REMARKS
SIOUX FALLS    PTCLDY    28  17  63 S16       30.35F WCI  16
HURON          PTCLDY    32  18  56 S17G26    30.24F WCI  21
CHAMBERLAIN    CLEAR     32  15  49 SE16      30.16F WCI  21
MITCHELL       PTCLDY    31  19  61 S18       30.29F WCI  19
YANKTON        CLEAR     28  18  64 SE10      30.35F WCI  19
$$

ABBREVIATIONS USED IN REMARKS
   TC - TEMPERATURE IN CELSIUS
  WCI - WIND CHILL INDEX
   HX - HEAT INDEX
  VSB - VISIBILITY




USA.gov is the U.S. government's official web portal to all federal, state and local government web resources and services.